Location: Unspecified
(52.4292°N, 19.3359°E)
Time: 00:49:09
(UTC+02:00)

Altair - Pass Details

Date: 24 May 2024
Orbit: 1502 x 1682 km, 47.2° (Epoch: 20 June)

Event Time Altitude Azimuth Distance (km) Brightness Sun altitude
Rises 13:27:59 0° 265° (W) 4,873 10.3 57.1°
Reaches altitude 10° 13:31:06 10° 263° (W) 3,904 10.0 56.9°
Maximum altitude 13:41:01 66° 185° (S) 1,805 10.0 56.3°
Drops below altitude 10° 13:51:02 10° 106° (ESE) 3,939 9.7 55.6°
Sets 13:54:12 0° 104° (ESE) 4,919 10.0 55.3°
